Flag for United Kingdom Weather past 2 weeks in Dudley, England, United Kingdom

Now
55 °F

Clear.


Feels Like: 53 °F
Forecast: 54 / 65 °F
Wind: 8 mph from South

Location: Birmingham / Airport

Current Time: Aug 29, 2014 at 1:06:48 AM

Latest Report: Aug 29, 2014 at 12:20 AM


Visibility: 10 mi

Pressure: 29.83 "Hg

Humidity: 88%

Dew point: 52 °F

Location of DudleyLocation

Historic Weather in Dudley — Graph

°F

Dudley temperature yesterday

Maximum temperature yesterday: 68 °F (at 3:20 PM)
Minimum temperature yesterday: 55 °F (at 11:20 PM)
Average temperature yesterday: 63 °F

Past Weeks' High & Low Weather Summary

 TemperatureHumidityPressure
High68 °F (Aug 28, 3:20 PM)100% (Aug 25, 5:20 AM)30.15 "Hg (Aug 25, 5:20 AM)
Low45 °F (Aug 21, 3:20 AM)42% (Aug 18, 6:20 PM)29.53 "Hg (Aug 25, 8:50 PM)
Average57 °F74%29.89 "Hg
* Reported Aug 13 11:20 PM — Aug 28 11:50 PM, Dudley, Weather by CustomWeather, © 2014

Note: Actual official high and low records may vary slightly from our data, if they occured in-between our weather recording intervals... More about our weather records

Advertising

Dudley weather history for previous 24 hours

 ConditionsComfort  
Time TempWeatherWind HumidityBarometerVisibility
11:50 PM
Aug 28
55 °FPassing clouds.7 mph88%29.83 "HgN/A
11:20 PM55 °FCool.6 mph88%29.83 "HgN/A
10:50 PM57 °FClear.5 mph77%29.83 "Hg10 mi
10:20 PM59 °FPassing clouds.6 mph72%29.83 "HgN/A
9:50 PM59 °FPassing clouds.6 mph72%29.83 "HgN/A
9:20 PM59 °FPassing clouds.6 mph68%29.83 "HgN/A
8:50 PM61 °FSunny.6 mph63%29.83 "Hg10 mi
8:20 PM61 °FSunny.3 mph63%29.83 "Hg10 mi
7:50 PM64 °FPassing clouds.5 mph56%29.80 "HgN/A
7:20 PM64 °FPassing clouds.8 mph52%29.80 "HgN/A
6:50 PM66 °FPassing clouds.10 mph49%29.80 "HgN/A
6:20 PM68 °FPassing clouds.10 mph49%29.80 "HgN/A
5:50 PM68 °FPassing clouds.12 mph49%29.80 "HgN/A
5:20 PM68 °FPassing clouds.13 mph49%29.80 "HgN/A
4:20 PM68 °FScattered clouds.9 mph56%29.80 "HgN/A
3:50 PM68 °FScattered clouds.10 mph64%29.80 "HgN/A
3:20 PM68 °FPartly sunny.8 mph69%29.80 "HgN/A
2:50 PM64 °FBroken clouds.7 mph83%29.80 "HgN/A
2:20 PM66 °FScattered showers. Partly sunny.8 mph73%29.80 "HgN/A
1:50 PM66 °FPartly sunny.10 mph73%29.80 "HgN/A
1:20 PM66 °FPartly sunny.10 mph68%29.80 "HgN/A
12:50 PM66 °FBroken clouds.12 mph68%29.77 "HgN/A
12:20 PM66 °FPartly sunny.9 mph73%29.80 "HgN/A
11:50 AM64 °FBroken clouds.9 mph78%29.80 "HgN/A
11:20 AM64 °FPartly sunny.10 mph78%29.80 "HgN/A
10:50 AM63 °FScattered clouds.9 mph83%29.80 "HgN/A
10:20 AM63 °FPassing clouds.7 mph83%29.80 "HgN/A
9:50 AM63 °FPassing clouds.7 mph83%29.80 "HgN/A
9:20 AM63 °FPassing clouds.5 mph77%29.80 "HgN/A
8:50 AM61 °FPassing clouds.5 mph88%29.77 "HgN/A
8:20 AM61 °FPassing clouds.6 mph88%29.77 "HgN/A
7:50 AM61 °FScattered clouds.7 mph88%29.77 "HgN/A
7:20 AM61 °FScattered showers. Broken clouds.8 mph94%29.77 "HgN/A
6:50 AM61 °FDrizzle. Mostly cloudy.3 mph100%29.74 "Hg5 mi
6:20 AM61 °FOvercast.5 mph100%29.74 "HgN/A
5:50 AM61 °FPartly cloudy.6 mph100%29.74 "Hg6 mi
5:20 AM61 °FMostly cloudy.7 mph100%29.74 "Hg4 mi
4:50 AM61 °FDrizzle. Mostly cloudy.6 mph100%29.74 "Hg2 mi
4:20 AM61 °FDrizzle. Mostly cloudy.8 mph94%29.74 "Hg1 mi
3:50 AM61 °FLight rain. Mostly cloudy.9 mph94%29.74 "Hg2 mi
3:20 AM61 °FLight rain. Overcast.9 mph94%29.77 "Hg4 mi
2:50 AM61 °FPartly cloudy.9 mph94%29.77 "Hg1 mi
2:20 AM61 °FDrizzle. Mostly cloudy.12 mph94%29.77 "Hg1 mi
1:50 AM61 °FDrizzle. Mostly cloudy.14 mph94%29.77 "Hg1 mi
1:20 AM61 °FDrizzle. Mostly cloudy.14 mph94%29.77 "Hg2 mi
Weather by CustomWeather, © 2014

See weather overviewHow to use our weather pages